Main page
METAR-TAF:

METAR-TAF

Airports :

Aurora Municipal Airport

Aurora, Nebraska, United States

latitude: 40-53-38N, longitude: 097-59-40W, elevation: 1804 ft

Current weather observation

The report was made 10 minutes ago, at 21:35 UTC
Wind 18 mph from the West/Southwest with gusts up to 22 mph
Temperature 95°F
Humidity 32%
Pressure 29.86 in. Hg
Visibility: 10 miles
Clear sky

METAR: KAUH 022135Z AUTO 24016G19KT 10SM CLR 35/16 A2986 RMK AO2 T03500157

Time: 16:45 (21:45 UTC)


TAF: missing

Weather observations and forecasts of more than 4000 airports (METAR and TAF reports).

The available stations are represented by yellow and red dots on the map.

Hover mouse over dot to see the name of the station.

Then click to see weather observations and forecasts.

To change the map : click on the green buttons with a black cross to zoom in, on the green button with a dash to zoom out, or on the green arrows for adjacent maps.


METAR-TAF: